www.pogodaiklimat.ru

Погода и климат >> Архив погоды >> Россия >> Якутия >> Джарджан


АРХИВ ПОГОДЫ в Джарджане

Время (UTC), дата Ветер
(напр.,м/с)
 
Видим.   Явления Облачность Т
(С)
Тd
(С)
f
(%)
Тe
(С)
Тes
(С)
Комфортность P
(гПа)
Po
(гПа)
Тmin
(С)
Tmax
(С)
R
(мм)
R24
(мм)
S
(см)
09 11.06 ЮЗ 5
{10}
50 км 10/10 600 м
[Cb cap]
+18.9 +9.7 55 +19 +19 999.1 994.6
12 11.06 Ю 4
{10}
50 км 10/10 600 м
[Cb cap]
+16.5 +9.2 62 +16 +16 999.5 995.0 +20.7
15 11.06 Ю 5
{11}
50 км 10/10 600 м
[Cb cap]
+16.5 +8.0 57 +16 +16 998.8 994.3
18 11.06 Ю 5
{10}
50 км 10/10 600 м
[Cb cap]
+16.4 +7.1 54 +16 +16 997.8 993.3
21 11.06 Ю 4 50 км 10/3 1000 м
[Sc Cs]
+18.3 +8.0 51 +18 +19 997.2 992.7
00 12.06 Ю 6
{14}
50 км 10/3 1000 м
[Sc Cs]
+21.3 +10.5 50 +23 +24 комфорт 995.8 991.4 +16.4
03 12.06 Ю 7
{13}
50 км 10/4 1000 м
[Sc Cs]
+23.6 +10.6 44 +25 +26 комфорт 994.8 990.4
06 12.06 Ю 7
{14}
50 км 10/10 1000 м
[Sc]
+23.4 +10.4 44 +25 +25 комфорт 994.6 990.2
09 12.06 Ю 4
{11}
50 км 10/10 600 м
[Cb cap]
+21.6 +7.6 40 +23 +23 комфорт 996.4 990.2
12 12.06 Ю 4
{10}
50 км 10/10 600 м
[Cb cap]
+21.2 +7.0 40 +22 +22 комфорт 994.9 990.5 +23.6
15 12.06 З 5
{10}
50 км 10/10 600 м
[Cb cap]
+9.8 +5.6 75 +7 +7 998.2 993.6
18 12.06 З 5
{10}
50 км 10/10 600 м
[Cb cap]
+5.9 +2.2 77 +2 +2 1002.6 997.9
21 12.06 штиль 0 20 км слаб. ливневой дождь 10/10 600 м
[Cb cap]
+3.3 +2.3 93 +2 +2 1006.9 1001.6
00 13.06 СЗ 3 20 км слаб. ливневой дождь 10/10 600 м
[Cb cap]
+3.7 +2.7 93 -0 -0 1009.3 1004.6 +3.3 0.7
03 13.06 С 3 20 км слаб. ливневой дождь 10/10 600 м
[Cb cap]
+3.7 +2.4 91 -0 -0 1012.1 1007.3
06 13.06 С 3 20 км слаб. ливневой дождь 10/10 600 м
[Cb cap]
+3.6 +2.9 95 -0 -0 1013.7 1008.9
09 13.06 СВ 2 20 км слаб. ливневой дождь 10/10 600 м
[Cb cap]
+3.4 +2.7 95 0 0 1015.2 1010.4
12 13.06 СВ 3 50 км {ливн. осадки} 10/10 600 м
[Cb cap]
+3.9 +3.2 95 -0 -0 1016.2 1011.4 +3.9 3
15 13.06 штиль 0 50 км 10/10 600 м
[Cb cap]
+3.5 +2.0 90 +2 +2 1016.5 1011.7
18 13.06 Ю 1 50 км 9/0 600 м
[]
+3.7 +2.2 90 +2 +2 1016.7 1011.9
21 13.06 Ю 2 50 км 10/10 600 м
[Cb cap]
+4.5 +2.5 87 +2 +2 1016.9 1012.1
00 14.06 Ю 2 50 км 8/8 600 м
[Cb cap]
+6.8 +3.8 81 +5 +6 1016.8 1012.1 +3.5
03 14.06 ЮЗ 4 50 км 9/9 600 м
[Cb cap]
+9.2 +2.7 64 +7 +7 1015.7 1011.0
06 14.06 Ю 4 50 км 10/0
[Cs]
+12.1 +5.0 62 +10 +15 1014.2 1009.5
09 14.06 Ю 3 50 км 3/0
[Ci fib]
+14.0 +5.6 57 +13 +16 1012.8 1008.2
12 14.06 Ю 4 50 км ясно +13.7 +5.0 56 +12 +13 1011.9 1007.3 +14.0
15 14.06 Ю 2 50 км ясно +11.4 +3.4 58 +11 +11 1011.5 1006.8
18 14.06 Ю 2 50 км ясно +8.4 +1.9 64 +7 +7 1011.5 1006.8
21 14.06 Ю 4 50 км ясно +12.1 +2.5 52 +10 +12 1011.2 1006.6
00 15.06 Ю 5 50 км ясно +15.8 +4.8 48 +15 +18 1010.3 1005.7 +8.4
03 15.06 Ю 8
{12}
50 км 4/0
[Ci fib]
+18.5 +4.8 40 +18 +20 1008.8 1004.3
06 15.06 ЮЗ 8
{12}
50 км ясно +20.0 +5.9 40 +20 +22 1007.6 1003.1
09 15.06 ЮЗ 6
{12}
50 км 6/0
[Ci fib]
+21.2 +7.3 41 +22 +24 комфорт 1007.2 1002.7
12 15.06 ЮВ 5
{10}
50 км 3/0
[Ci fib]
+20.2 +7.3 43 +21 +21 комфорт 1007.3 1002.8 +21.2
15 15.06 Ю 5
{10}
50 км 10/0
[Cs]
+17.2 +5.5 46 +17 +17 1007.6 1003.1
18 15.06 Ю 5
{11}
50 км 10/0
[Cs]
+15.4 +4.8 49 +14 +14 1008.3 1003.7
21 15.06 Ю 4 50 км 10/0
[Cs]
+16.9 +6.8 51 +16 +18 1008.7 1004.2
00 16.06 Ю 4 50 км 10/0
[Cs]
+20.4 +7.8 44 +22 +25 комфорт 1008.9 1004.4 +15.4
03 16.06 ЮЗ 9
{14}
50 км 10/0
[Cs]
+23.2 +6.7 35 +24 +25 комфорт 1008.7 1004.3
06 16.06 ЮЗ 7
{13}
50 км 10/0
[Ac trans Cs]
+24.6 +8.1 35 +25 +27 комфорт 1009.1 1004.7
09 16.06 С 3
{14}
50 км 10/6 1000 м
[Sc Ac As]
+17.7 +12.8 73 +18 +18 1011.5 1007.0
12 16.06 С 3 50 км {ливн. осадки} 10/8 600 м
[Cb cap Ac As]
+13.4 +12.3 93 +12 +12 1013.9 1009.3 +24.6 0.0
15 16.06 50 км н/о +12.7 +11.5 92 +11 +11 1014.9 1010.3
18 16.06 СВ 4 50 км 10/10 600 м
[Cb cap]
+11.3 +9.7 90 +9 +9 1016.5 1011.9
21 16.06 С 3 50 км 10/10 600 м
[Cb cap]
+11.1 +8.9 86 +9 +9 1017.5 1012.8
00 17.06 С 4 50 км 8/3 600 м
[Cb cap Ci fib]
+13.9 +10.9 82 +12 +15 1018.3 1013.7 +11.1
03 17.06 СВ 4 50 км 3/0
[Ci fib]
+20.3 +7.4 43 +21 +28 комфорт 1016.8 1012.3
06 17.06 С 4 50 км 6/0
[Ci fib]
+20.6 +6.8 41 +22 +27 комфорт 1015.9 1011.4
09 17.06 С 3 50 км 8/0
[Cs]
+20.8 +6.8 40 +22 +25 комфорт 1014.8 1010.3
12 17.06 С 3 50 км 4/0
[Ci fib]
+17.8 +5.8 45 +18 +19 1014.6 1010.0 +20.8
15 17.06 С 2 50 км 8/0
[Cs]
+13.3 +3.2 50 +13 +13 1013.6 1009.0
18 17.06 С 2 50 км 4/0
[Cs]
+11.1 +6.8 75 +10 +10 1013.6 1008.9
21 17.06 СВ 2 50 км 4/0
[Cs]
+12.7 +6.4 65 +12 +14 1012.8 1008.2
00 18.06 С 3 50 км 10/0
[Cs]
+14.9 +8.1 64 +14 +19 1012.2 1007.6 +11.1
03 18.06 СЗ 1 50 км 10/0
[Cs]
+18.7 +9.4 55 +20 +31 1010.7 1006.2
06 18.06 З 1 50 км 3/0
[Ci fib]
+25.1 +5.8 29 +25 +35 комфорт 1008.6 1004.2

 

Местоположение метеостанции Джарджан (Якутия, Россия): широта 68.73 долгота 124.00 высота над уровнем моря 39 м.

В архиве по умолчанию представлена погода в Джарджане за последнюю неделю. Архивные данные за месяц целиком и за предыдущие месяцы, начиная с января 2011 года, Вы можете получить, выбрав интересующий диапазон дат из раскрывающегося списка и нажав кнопку "Ввод!".


*Определитесь, кто Вы:
робот инопланетянин человек

Внимание! Время в таблицах - всемирное. Для получения местного времени необходимо прибавить поправку, которая равна 9 ч.

Смотрите также архив погоды в соседних городах и на ближайших метеорологических станциях:

Погода в Жиганске (Якутия, Россия) (219 км)
Погода в Сухане (Якутия, Россия) (231 км)
Погода в Кюсюре (Якутия, Россия) (253 км)
Погода в Батагай-Алыте (Якутия, Россия) (284 км)
Погода в Тюмяти (Якутия, Россия) (355 км)
Погода в Тикси (Якутия, Россия) (367 км)
Погода в Бестяхской Звероферме (Якутия, Россия) (382 км)
Погода в Екюччю (Якутия, Россия) (387 км)
Погода в Верхоянске (Якутия, Россия) (409 км)
Погода на Мысе Быков (Якутия, Россия) (410 км)

Пояснения к столбцам:

Ветер - указаны скорость ветра в м/с - средняя за 10 мин, порывы в срок и между сроками (в фигурных скобках) и направление, откуда дует ветер: С - северный, СВ - северо-восточный, В - восточный, ЮВ - юго-восточный, Ю - южный, ЮЗ - юго-западный, З - западный, СЗ - северо-западный.
Видимость - горизонтальная дальность видимости в метрах или километрах. При видимости от 1 до 10 км при отсутствии осадков обычно наблюдается дымка, при ухудшении видимости до 1 км и менее - туман. В сухую погоду видимость может ухудшаться дымом, пылью или мглою.
Явления - указаны атмосферные явления, наблюдавшиеся в срок или в последний час перед сроком; фигурными скобками обозначены явления, наблюдавшиеся между сроками (за 1-3 часа до срока); квадратными скобками обозначены град или гололедные отложения с указанием их диаметра в мм.
Облачность - указаны через наклонную черту общая и нижняя облачность в баллах и высота нижней границы облаков в метрах; квадратными скобками обозначены формы облаков: Ci - перистые, Cs - перисто-слоистые, Cc - перисто-кучевые, Ac - высококучевые, As - высокослоистые, Sc - слоисто-кучевые, Ns - слоисто-дождевые, Cu - кучевые, Cb - кучево-дождевые. Подробнее классификацию облаков см. в Атласе облаков (PDF).
T - Температура воздуха - температура, измеренная на высоте 2 м над землей.
Td - Температура точки росы - температура, при понижении до которой содержащийся в воздухе водяной пар достигнет насыщения.
f - Относительная влажность воздуха - влажноcть воздуха, измеренная на высоте 2 м над землей.
Te - Эффективная температура - температура, которую ощущает одетый по сезону человек в тени. Характеристика душности погоды. При расчете учитывается влияние влажности воздуха и скорости ветра на теплоощущения человека.
Tes - Эффективная температура на солнце - температура, которую ощущает человек, с поправкой на солнечный нагрев. Характеристика знойности погоды. Зависит от высоты солнца над горизонтом, облачности и скорости ветра. Ночью, в пасмурную погоду, а также при ветре 12 м/с и более поправка равна нулю.
P - Атмосферное давление - приведенное к уровню моря атмосферное давление.
Po - Атмосферное давление - измеренное на уровне метеостанции атмосферное давление.
Tmin - Минимальная температура - минимум температуры воздуха на высоте 2 м над землей.
Tmax - Максимальная температура - максимум температуры воздуха на высоте 2 м над землей.
R - Количество осадков - Количество выпавших осадков за период времени, мм. При наведении курсора мыши на число - период времени, за который выпало указанное количество осадков.
R24 - Количество осадков - Количество выпавших осадков за 24 часа, мм.
S - Снежный покров - Высота снежного покрова, см. При наведении курсора мыши на число - состояние снежного покрова и степень покрытия местности в баллах.